CW6666 Weather Reports


Display with metric or nautical units.
time (UTC)temp
F
wind
direction
speed
MPH
gust
MPH
rain 1hr
in
rain 24hr
in
rain mn
in
humidity
%
barometer
mb
20160504133045 82 46 10.0 13.0 0.00 0.00 0.00 85 1011.1
20160504132545 82 48 12.0 14.0 0.00 0.00 0.00 84 1011.1
20160504132045 82 37 11.0 14.0 0.00 0.00 0.00 84 1011.1
20160504131545 82 54 12.0 14.0 0.00 0.00 0.00 84 1011.1
20160504131045 82 38 10.0 14.0 0.00 0.00 0.00 84 1011.3
20160504130545 82 40 13.0 15.0 0.00 0.00 0.00 84 1011.3
20160504130045 82 48 12.0 15.0 0.00 0.00 0.00 84 1011.3
20160504125600 82 44 12.0 15.0 0.00 0.00 0.00 84 1011.3
20160504125045 82 61 13.0 15.0 0.00 0.00 0.00 84 1011.3
20160504124559 82 43 13.0 15.0 0.00 0.00 0.00 84 1011.3
20160504124045 82 61 11.0 14.0 0.00 0.00 0.00 84 1011.4
20160504123600 82 55 13.0 14.0 0.00 0.00 0.00 84 1011.4
20160504123045 82 46 11.0 15.0 0.00 0.00 0.00 84 1011.4
20160504122545 82 55 12.0 15.0 0.00 0.00 0.00 84 1011.3
20160504122045 82 49 12.0 15.0 0.00 0.00 0.00 84 1011.3
20160504121545 82 57 12.0 15.0 0.00 0.00 0.00 84 1011.3
20160504121045 82 61 12.0 15.0 0.00 0.00 0.00 84 1011.3
20160504120545 82 59 13.0 15.0 0.00 0.00 0.00 84 1011.3
20160504120045 82 59 13.0 16.0 0.00 0.00 0.00 84 1011.3
20160504115545 82 60 13.0 16.0 0.00 0.00 0.00 84 1011.3
20160504115045 82 63 16.0 16.0 0.00 0.01 0.00 84 1011.3
20160504114545 83 56 13.0 16.0 0.00 0.01 0.00 84 1011.3
20160504114045 83 48 13.0 16.0 0.00 0.01 0.00 84 1011.1
20160504113545 83 53 15.0 16.0 0.00 0.02 0.00 84 1011.1
20160504113045 82 59 12.0 16.0 0.00 0.02 0.00 84 1011.1
20160504112544 83 66 12.0 16.0 0.00 0.02 0.00 84 1010.9
20160504112045 82 58 14.0 16.0 0.00 0.02 0.00 84 1010.9
20160504111545 83 51 13.0 16.0 0.00 0.02 0.00 84 1010.9
20160504111045 82 46 13.0 16.0 0.00 0.03 0.00 84 1010.9
20160504110600 82 59 13.0 15.0 0.00 0.03 0.00 84 1010.9
20160504110045 83 49 14.0 17.0 0.00 0.03 0.00 84 1010.9
20160504105545 83 45 11.0 17.0 0.00 0.03 0.00 84 1010.8
20160504105045 83 56 16.0 17.0 0.00 0.03 0.00 84 1010.8
20160504104544 83 51 13.0 17.0 0.00 0.03 0.00 84 1010.8
20160504104044 82 46 13.0 17.0 0.00 0.03 0.00 84 1010.8
20160504103545 83 42 16.0 17.0 0.00 0.03 0.00 84 1010.8
20160504103044 83 51 13.0 16.0 0.00 0.03 0.00 84 1010.8
20160504102545 83 50 14.0 16.0 0.00 0.03 0.00 84 1010.5
20160504102100 83 45 14.0 17.0 0.00 0.03 0.00 84 1010.5
20160504101545 82 57 12.0 17.0 0.00 0.03 0.00 84 1010.5
20160504101044 83 50 15.0 17.0 0.00 0.03 0.00 84 1010.3
20160504100545 83 55 12.0 17.0 0.00 0.03 0.00 84 1010.3
20160504100045 83 47 14.0 17.0 0.00 0.03 0.00 84 1010.3
20160504095545 83 61 15.0 17.0 0.00 0.03 0.00 84 1010.2
20160504095045 83 50 13.0 16.0 0.00 0.03 0.00 84 1010.2
20160504094544 83 55 15.0 16.0 0.00 0.03 0.00 84 1010.2
20160504094045 83 53 12.0 18.0 0.00 0.03 0.00 84 1010.0
20160504093545 83 52 14.0 18.0 0.00 0.03 0.00 84 1010.0
20160504093045 83 46 13.0 16.0 0.00 0.03 0.00 84 1010.0
20160504092545 83 51 16.0 16.0 0.00 0.03 0.00 84 1009.8
20160504092045 83 64 15.0 16.0 0.00 0.03 0.00 84 1009.8
20160504091545 83 41 13.0 16.0 0.00 0.03 0.00 84 1009.8
20160504091045 83 54 12.0 16.0 0.00 0.03 0.00 84 1009.7
20160504090545 83 53 12.0 16.0 0.00 0.03 0.00 84 1009.7
20160504090045 83 46 15.0 17.0 0.00 0.03 0.00 84 1009.7
20160504085544 83 48 14.0 17.0 0.00 0.03 0.00 84 1009.5
20160504085045 83 50 13.0 16.0 0.00 0.03 0.00 84 1009.5
20160504084545 83 42 13.0 15.0 0.00 0.03 0.00 84 1009.5
20160504084044 83 51 14.0 15.0 0.00 0.03 0.00 84 1009.3
20160504083600 83 53 11.0 14.0 0.00 0.03 0.00 83 1009.3
20160504083044 83 44 13.0 14.0 0.00 0.03 0.00 83 1009.3
20160504082544 83 52 13.0 14.0 0.00 0.03 0.00 83 1009.3
20160504082044 83 63 12.0 15.0 0.00 0.03 0.00 83 1009.3
20160504081545 83 57 11.0 16.0 0.00 0.03 0.00 83 1009.3
20160504081044 83 52 12.0 16.0 0.00 0.03 0.00 83 1009.0
20160504080544 83 56 13.0 16.0 0.00 0.03 0.00 83 1009.0
20160504080045 83 55 14.0 17.0 0.00 0.03 0.00 83 1009.0
20160504075544 83 50 13.0 17.0 0.00 0.03 0.00 83 1008.7
20160504075045 83 42 13.0 15.0 0.00 0.03 0.00 83 1008.7
20160504074545 83 57 14.0 15.0 0.00 0.03 0.00 83 1008.7
20160504073600 83 53 13.0 17.0 0.00 0.03 0.00 82 1008.6
20160504073045 83 53 15.0 17.0 0.00 0.03 0.00 82 1008.6
20160504072544 83 57 12.0 15.0 0.00 0.03 0.00 82 1008.6
20160504072044 83 59 12.0 15.0 0.00 0.03 0.00 81 1008.6
20160504071544 84 54 11.0 15.0 0.00 0.03 0.00 81 1008.6
20160504071045 84 53 13.0 15.0 0.00 0.03 0.00 81 1008.4
20160504070544 84 63 13.0 15.0 0.00 0.03 0.00 81 1008.4
20160504070045 84 57 11.0 14.0 0.00 0.03 0.00 80 1008.4
20160504065559 84 63 10.0 14.0 0.00 0.03 0.00 80 1008.3
20160504065044 85 59 14.0 14.0 0.00 0.03 0.00 80 1008.3
20160504064544 84 53 12.0 16.0 0.00 0.03 0.00 79 1008.3
20160504064044 84 70 11.0 16.0 0.00 0.03 0.00 79 1008.2
20160504063545 85 68 13.0 16.0 0.00 0.03 0.00 79 1008.2
20160504063100 85 55 15.0 15.0 0.00 0.03 0.00 79 1008.2
20160504062544 85 59 14.0 15.0 0.00 0.03 0.00 79 1008.1
20160504062044 85 56 12.0 15.0 0.00 0.03 0.00 79 1008.1
20160504061545 85 63 12.0 16.0 0.00 0.03 0.00 79 1008.1
20160504061044 85 72 12.0 16.0 0.00 0.03 0.00 79 1008.0
20160504060545 85 63 14.0 15.0 0.00 0.03 0.00 79 1008.0
20160504060044 85 65 13.0 15.0 0.00 0.03 0.00 79 1008.0
20160504055544 85 59 13.0 16.0 0.00 0.03 0.00 79 1007.9
20160504055045 85 67 12.0 16.0 0.00 0.03 0.00 79 1007.9
20160504054545 85 57 14.0 16.0 0.00 0.03 0.00 79 1007.9
20160504054100 85 51 12.0 17.0 0.00 0.03 0.00 79 1008.0
20160504053545 85 47 14.0 17.0 0.00 0.03 0.00 78 1008.0
20160504053044 86 58 12.0 15.0 0.00 0.03 0.00 78 1008.0
20160504052559 86 57 13.0 16.0 0.00 0.03 0.00 78 1008.0
20160504052045 86 50 13.0 16.0 0.00 0.03 0.00 79 1008.0
20160504051544 85 43 12.0 15.0 0.00 0.03 0.00 78 1008.0
20160504051044 85 42 13.0 14.0 0.00 0.03 0.00 78 1008.1
20160504050544 86 53 12.0 14.0 0.00 0.03 0.00 78 1008.1
20160504050044 86 59 14.0 15.0 0.00 0.03 0.00 78 1008.1
20160504045544 86 44 13.0 15.0 0.00 0.03 0.00 78 1008.1
20160504045046 86 64 10.0 14.0 0.00 0.03 0.00 78 1008.1
20160504044600 86 49 12.0 15.0 0.00 0.03 0.00 78 1008.1
20160504044045 86 63 12.0 16.0 0.00 0.03 0.00 78 1008.1
20160504043544 86 57 12.0 16.0 0.00 0.03 0.00 77 1008.1
20160504043045 86 44 11.0 14.0 0.00 0.03 0.00 78 1008.1
20160504042548 86 54 13.0 14.0 0.00 0.03 0.00 78 1008.2
20160504042100 86 50 14.0 15.0 0.00 0.03 0.00 78 1008.2
20160504041544 86 46 13.0 15.0 0.00 0.03 0.00 78 1008.2
20160504041044 86 44 12.0 14.0 0.00 0.03 0.00 78 1008.2
20160504040544 86 54 12.0 14.0 0.00 0.03 0.00 77 1008.2
20160504040044 86 49 13.0 14.0 0.00 0.03 0.00 78 1008.2
20160504035559 86 59 11.0 15.0 0.00 0.03 0.00 78 1008.3
20160504035045 86 52 12.0 15.0 0.00 0.03 0.00 79 1008.3
20160504034544 86 62 14.0 14.0 0.00 0.03 0.00 79 1008.3
20160504034044 86 46 12.0 13.0 0.00 0.03 0.00 78 1008.5
20160504033544 86 71 11.0 14.0 0.00 0.03 0.00 78 1008.5
20160504033044 86 64 11.0 14.0 0.00 0.03 0.00 78 1008.5
20160504032544 86 51 11.0 15.0 0.00 0.03 0.00 78 1008.7
20160504032059 86 52 12.0 15.0 0.00 0.03 0.00 78 1008.7
20160504031544 86 46 12.0 15.0 0.00 0.03 0.00 79 1008.7
20160504031045 86 53 12.0 14.0 0.00 0.03 0.00 78 1008.8
20160504030544 87 58 11.0 13.0 0.00 0.03 0.00 79 1008.8
20160504030044 87 68 11.0 13.0 0.00 0.03 0.00 79 1008.8
20160504025544 87 58 11.0 14.0 0.00 0.03 0.00 78 1009.1
20160504025044 86 63 13.0 14.0 0.00 0.03 0.00 78 1009.1
20160504024559 87 57 12.0 13.0 0.00 0.03 0.00 77 1009.1
20160504024044 86 72 10.0 15.0 0.00 0.03 0.00 78 1009.3
20160504023544 86 67 13.0 16.0 0.00 0.03 0.00 78 1009.3
20160504023045 86 62 15.0 16.0 0.00 0.03 0.00 78 1009.3
20160504022545 86 60 14.0 16.0 0.00 0.03 0.00 79 1009.6
20160504022100 86 60 15.0 16.0 0.00 0.03 0.00 79 1009.6
20160504021545 86 58 14.0 15.0 0.00 0.03 0.00 79 1009.6
20160504021044 86 52 13.0 15.0 0.00 0.03 0.00 78 1009.7
20160504020544 86 58 12.0 15.0 0.00 0.03 0.00 79 1009.7
20160504020045 86 62 12.0 16.0 0.00 0.03 0.00 79 1009.7
20160504015544 86 48 15.0 17.0 0.00 0.03 0.00 79 1009.9
20160504015044 86 55 12.0 17.0 0.00 0.03 0.00 79 1009.9
20160504014544 86 41 14.0 15.0 0.00 0.03 0.00 79 1009.9
20160504014045 86 58 12.0 15.0 0.00 0.03 0.00 78 1010.2
20160504013559 86 63 13.0 15.0 0.00 0.03 0.00 78 1010.2
20160504013045 86 53 11.0 15.0 0.00 0.03 0.00 79 1010.2
20160504012544 86 69 11.0 16.0 0.00 0.03 0.00 79 1010.3
20160504012044 86 48 14.0 16.0 0.00 0.03 0.00 79 1010.3
20160504011544 86 55 12.0 15.0 0.00 0.03 0.00 79 1010.3
20160504011045 86 54 13.0 15.0 0.00 0.03 0.00 79 1010.4
20160504010545 86 49 12.0 15.0 0.00 0.03 0.00 78 1010.4
20160504010044 86 57 12.0 15.0 0.00 0.03 0.00 79 1010.4
20160504005544 86 53 12.0 15.0 0.00 0.03 0.00 79 1010.6
20160504005045 86 58 14.0 16.0 0.00 0.03 0.00 79 1010.6
20160504004545 86 40 13.0 16.0 0.00 0.03 0.00 79 1010.6
20160504004045 86 34 14.0 16.0 0.00 0.03 0.00 79 1010.8
20160504003545 85 51 13.0 16.0 0.00 0.03 0.00 79 1010.8
20160504003044 85 40 13.0 16.0 0.00 0.03 0.00 79 1010.8
20160504002545 86 57 12.0 17.0 0.00 0.03 0.00 79 1011.0
20160504002044 85 48 15.0 17.0 0.00 0.03 0.00 79 1011.0
20160504001544 85 49 13.0 16.0 0.00 0.03 0.00 79 1011.0
20160504001044 85 53 14.0 17.0 0.00 0.03 0.00 79 1011.3
20160504000545 85 55 12.0 17.0 0.00 0.03 0.00 79 1011.3
20160504000044 85 48 15.0 17.0 0.00 0.03 0.00 80 1011.3
20160503235544 85 56 13.0 18.0 0.00 0.03 0.00 80 1011.4
20160503235045 85 42 17.0 18.0 0.00 0.03 0.00 81 1011.4
20160503234544 85 52 16.0 17.0 0.00 0.03 0.00 81 1011.4
20160503234044 85 55 12.0 17.0 0.00 0.03 0.00 81 1011.5
20160503233559 85 50 13.0 17.0 0.00 0.03 0.00 80 1011.5
20160503233044 85 52 14.0 17.0 0.00 0.03 0.00 80 1011.5
20160503232545 85 57 13.0 17.0 0.00 0.03 0.00 81 1011.7
20160503232059 85 63 13.0 17.0 0.00 0.03 0.00 81 1011.7
20160503231544 85 54 12.0 17.0 0.00 0.04 0.00 81 1011.7
20160503231044 85 44 12.0 18.0 0.00 0.04 0.00 81 1011.7
20160503230544 85 56 13.0 18.0 0.00 0.04 0.00 81 1011.7
20160503230045 84 55 16.0 18.0 0.00 0.04 0.00 81 1011.7
20160503225545 84 48 14.0 18.0 0.00 0.04 0.00 81 1011.7
20160503225044 84 44 14.0 17.0 0.00 0.04 0.00 81 1011.7
20160503224544 84 49 15.0 17.0 0.00 0.04 0.00 81 1011.7
20160503224044 84 55 14.0 18.0 0.00 0.05 0.00 82 1011.5
20160503223545 84 52 16.0 18.0 0.00 0.08 0.00 82 1011.5
20160503223044 84 47 15.0 17.0 0.00 0.08 0.00 82 1011.5
20160503222544 84 42 16.0 17.0 0.00 0.08 0.00 82 1011.4
20160503222045 84 31 15.0 18.0 0.00 0.08 0.00 82 1011.4
20160503221544 84 43 14.0 19.0 0.00 0.08 0.00 82 1011.4
20160503221044 83 42 15.0 19.0 0.00 0.08 0.00 82 1011.5
20160503220544 83 60 14.0 18.0 0.00 0.08 0.00 82 1011.5
20160503220045 84 53 14.0 18.0 0.00 0.08 0.00 82 1011.5
20160503215544 84 42 14.0 17.0 0.00 0.08 0.00 82 1011.4
20160503215059 83 53 14.0 17.0 0.00 0.08 0.00 82 1011.4
20160503214544 84 38 12.0 17.0 0.00 0.08 0.00 82 1011.4
20160503214044 84 45 14.0 17.0 0.00 0.08 0.00 83 1011.3
20160503213544 83 40 15.0 17.0 0.00 0.08 0.00 82 1011.3
20160503213109 83 46 14.0 17.0 0.00 0.08 0.00 83 1011.3
20160503212545 83 58 16.0 17.0 0.00 0.08 0.00 83 1011.2
20160503212044 83 41 13.0 17.0 0.00 0.08 0.00 83 1011.2
20160503211544 83 49 16.0 18.0 0.00 0.08 0.00 83 1011.2
20160503211044 83 42 16.0 18.0 0.00 0.08 0.00 83 1010.9
20160503210545 83 63 13.0 17.0 0.00 0.08 0.00 84 1010.9
20160503210059 83 34 13.0 17.0 0.00 0.08 0.00 84 1010.9
20160503205559 83 41 14.0 17.0 0.00 0.08 0.00 84 1010.8
20160503205045 82 57 17.0 17.0 0.00 0.08 0.00 84 1010.8
20160503204544 82 62 14.0 18.0 0.00 0.08 0.00 85 1010.8
20160503204059 82 57 14.0 18.0 0.00 0.08 0.00 85 1010.7
20160503203544 82 64 17.0 19.0 0.00 0.12 0.00 85 1010.7
20160503203045 82 40 16.0 19.0 0.00 0.12 0.00 85 1010.7
20160503202545 82 39 16.0 17.0 0.00 0.12 0.00 85 1010.5
20160503202045 82 53 15.0 17.0 0.00 0.12 0.00 85 1010.5
20160503201544 82 56 17.0 17.0 0.00 0.12 0.00 85 1010.5
20160503201044 82 59 13.0 17.0 0.00 0.12 0.00 85 1010.4
20160503200544 82 70 13.0 16.0 0.00 0.12 0.00 85 1010.4
20160503200059 82 45 13.0 17.0 0.00 0.12 0.00 85 1010.4
20160503195545 82 49 13.0 17.0 0.00 0.12 0.00 85 1010.4
20160503195044 82 52 15.0 17.0 0.00 0.12 0.00 85 1010.4
20160503194544 82 55 12.0 16.0 0.00 0.12 0.00 85 1010.4
20160503194044 82 56 14.0 16.0 0.00 0.12 0.00 85 1010.3
20160503193545 82 49 14.0 16.0 0.00 0.12 0.00 84 1010.3
20160503193044 82 51 14.0 16.0 0.00 0.12 0.00 84 1010.3
20160503192544 82 59 11.0 15.0 0.00 0.12 0.00 84 1010.3
20160503192059 82 50 14.0 15.0 0.00 0.12 0.00 84 1010.3
20160503191544 82 64 12.0 15.0 0.00 0.12 0.00 84 1010.3
20160503191059 82 63 12.0 15.0 0.00 0.12 0.00 84 1010.1
20160503190545 82 65 12.0 14.0 0.00 0.12 0.00 84 1010.1
20160503190044 82 72 11.0 14.0 0.00 0.12 0.00 84 1010.1
20160503185545 82 62 13.0 14.0 0.00 0.12 0.00 83 1009.9
20160503185044 82 61 9.0 14.0 0.00 0.12 0.00 83 1009.9
20160503184544 82 62 14.0 14.0 0.00 0.12 0.00 83 1009.9
20160503183544 82 61 12.0 15.0 0.00 0.12 0.00 83 1009.8
20160503183044 82 63 11.0 16.0 0.00 0.12 0.00 83 1009.8
20160503182559 82 46 15.0 16.0 0.00 0.12 0.00 83 1009.8
20160503182045 82 47 14.0 16.0 0.00 0.12 0.00 82 1009.8
20160503181545 82 53 14.0 16.0 0.00 0.12 0.00 82 1009.8
20160503181044 82 56 11.0 16.0 0.00 0.12 0.00 82 1009.8
20160503180545 82 54 14.0 16.0 0.00 0.12 0.00 82 1009.8
20160503180045 82 51 13.0 16.0 0.00 0.12 0.00 82 1009.8
20160503175544 82 54 13.0 16.0 0.00 0.12 0.00 83 1009.8
20160503175048 82 57 12.0 15.0 0.00 0.12 0.00 83 1009.8
20160503174544 82 60 12.0 17.0 0.00 0.12 0.00 83 1009.8
20160503174044 82 50 13.0 17.0 0.00 0.12 0.00 83 1009.6
20160503173559 82 74 13.0 16.0 0.00 0.12 0.00 83 1009.6
20160503173045 82 55 13.0 16.0 0.00 0.12 0.00 83 1009.6
20160503172545 82 65 11.0 17.0 0.00 0.12 0.00 83 1009.8
20160503172044 82 59 15.0 18.0 0.00 0.12 0.00 83 1009.8
20160503171559 82 55 15.0 18.0 0.00 0.12 0.00 83 1009.8
20160503171100 82 65 14.0 17.0 0.00 0.12 0.00 83 1009.8
20160503170544 82 60 15.0 17.0 0.00 0.12 0.00 83 1009.8
20160503170044 82 59 15.0 18.0 0.00 0.12 0.00 83 1009.8
20160503165545 82 55 15.0 18.0 0.00 0.12 0.00 84 1009.8
20160503165044 82 51 13.0 17.0 0.00 0.12 0.00 84 1009.8
20160503164544 82 63 13.0 17.0 0.00 0.12 0.00 84 1009.8
20160503164044 82 64 12.0 18.0 0.00 0.12 0.00 84 1009.8
20160503163545 82 59 16.0 18.0 0.00 0.12 0.00 83 1009.8
20160503163044 82 68 14.0 17.0 0.00 0.12 0.00 83 1009.8
20160503162559 82 65 15.0 18.0 0.00 0.12 0.00 83 1009.8
20160503162044 82 64 16.0 18.0 0.00 0.12 0.00 84 1009.8
20160503161544 82 57 15.0 18.0 0.00 0.12 0.00 84 1009.8
20160503161044 82 52 14.0 18.0 0.00 0.12 0.00 84 1009.8
20160503160559 82 60 15.0 17.0 0.00 0.12 0.00 84 1009.8
20160503160044 82 57 14.0 17.0 0.00 0.13 0.00 84 1009.8
20160503155545 82 63 14.0 17.0 0.00 0.15 0.00 84 1009.9
20160503155044 82 78 14.0 17.0 0.00 0.15 0.00 85 1009.9
20160503154544 82 69 17.0 17.0 0.00 0.15 0.00 85 1009.9
20160503154044 82 68 15.0 17.0 0.00 0.15 0.00 85 1009.9
20160503153544 82 57 14.0 17.0 0.00 0.15 0.00 85 1009.9
20160503153044 82 63 14.0 17.0 0.00 0.15 0.00 85 1009.9
20160503152545 82 63 12.0 17.0 0.00 0.15 0.00 85 1010.1
20160503152059 82 58 12.0 16.0 0.00 0.15 0.00 84 1010.1
20160503151544 82 74 13.0 16.0 0.00 0.15 0.00 84 1010.1
20160503151044 82 59 13.0 17.0 0.00 0.15 0.00 84 1010.2
20160503150544 82 65 12.0 17.0 0.00 0.15 0.00 84 1010.2
20160503150044 82 63 16.0 17.0 0.00 0.15 0.00 84 1010.2
20160503145544 82 65 14.0 17.0 0.00 0.15 0.00 84 1010.2
20160503145044 82 55 15.0 17.0 0.00 0.15 0.00 84 1010.2
20160503144559 82 65 13.0 16.0 0.00 0.15 0.00 84 1010.2
20160503144044 82 69 15.0 16.0 0.00 0.15 0.00 84 1010.2
20160503143545 82 61 14.0 17.0 0.00 0.15 0.00 84 1010.2
20160503143044 82 69 13.0 17.0 0.00 0.15 0.00 84 1010.2
20160503142544 82 78 11.0 17.0 0.00 0.15 0.00 84 1010.3
20160503142044 82 59 15.0 17.0 0.00 0.15 0.00 85 1010.3
20160503141544 82 68 12.0 17.0 0.00 0.15 0.00 85 1010.3
20160503141059 82 68 13.0 17.0 0.00 0.15 0.00 85 1010.5
20160503140544 82 71 12.0 17.0 0.00 0.15 0.00 85 1010.5
20160503140044 82 67 16.0 17.0 0.00 0.16 0.00 85 1010.5
20160503135545 82 65 11.0 17.0 0.00 0.16 0.16 85 1010.6
20160503135045 82 74 12.0 18.0 0.00 0.16 0.16 85 1010.6
20160503134544 82 59 16.0 18.0 0.00 0.16 0.16 85 1010.6
20160503134045 82 54 15.0 17.0 0.00 0.16 0.16 85 1010.8
20160503133544 82 79 12.0 19.0 0.00 0.16 0.16 85 1010.8